Date String (YYYY-MM-DD hh:mm:ss) UTC,Instrument flags,absolute air pressure of the measurement (hPa),sample flow rate (lpm),inlet stack bypass flow (lpm),air temperature of the measurement (°C),ambient temperature measured by the external sensor (°C),aerosol sample conditioner tube jacket temperature (°C),OPC LED temperature (°C),internal box temperature (°C),relative humidity of the measurement (%),span deviation,mass concentration of particles derived from Lorenz-Mie calculation of OPC scattering (μg/m³),mass concentration of particles derived from Lorenz-Mie calculation of OPC scattering (μg/m³),mass concentration of particles derived from Lorenz-Mie calculation of OPC scattering (μg/m³)
DateTimeUTC,F1_M11,P_M11,Q1_M11,Q2_M11,T1_M11,T2_M11,T3_M11,T4_M11,T5_M11,U1_M11,ZSPAN_M11,X2_M11,X0_M11,X1_M11
2024-05-18 16:00:00,SystemResetWarning,0829.9,4.99,000.00,024.5,022.8,000.0,033.0,025.9,025.7,0000.0,0005.32,0022.99,0003.45
2024-05-18 16:01:00,SystemResetWarning,0829.9,4.99,000.00,024.5,023.1,000.0,033.0,026.1,026.1,0000.0,0005.39,0022.74,0003.46
2024-05-18 16:02:00,SystemResetWarning,0830.0,5.00,000.00,024.6,023.3,000.0,032.9,026.2,026.6,0000.0,0005.45,0024.48,0003.46
2024-05-18 16:03:00,SystemResetWarning,0830.0,5.00,000.00,024.6,023.5,000.0,032.9,026.3,025.8,0000.0,0005.45,0024.62,0003.47
2024-05-18 16:04:00,SystemResetWarning,0830.0,5.00,000.00,024.6,023.7,000.0,032.9,026.4,025.7,0000.0,0005.37,0024.02,0003.48
2024-05-18 16:05:00,SystemResetWarning,0829.9,5.01,000.00,024.7,023.9,000.0,032.9,026.5,025.4,0000.0,0005.33,0024.00,0003.48
2024-05-18 16:06:00,SystemResetWarning,0830.0,5.00,000.00,024.7,024.0,000.0,032.9,026.6,026.0,0000.0,0005.31,0023.89,0003.49
2024-05-18 16:07:00,SystemResetWarning,0829.9,5.00,000.00,024.8,024.1,000.0,032.9,026.6,025.8,0000.0,0005.36,0025.00,0003.48
2024-05-18 16:08:00,SystemResetWarning,0829.9,4.99,000.00,024.8,024.2,000.0,032.9,026.7,026.2,0000.0,0005.35,0024.70,0003.49
2024-05-18 16:09:00,SystemResetWarning,0829.9,4.99,000.00,024.9,024.3,000.0,033.0,026.7,025.7,0000.0,0005.35,0024.43,0003.48
2024-05-18 16:10:00,SystemResetWarning,0829.8,4.99,000.00,024.9,024.0,000.0,033.0,026.5,024.8,0000.0,0005.32,0024.52,0003.48
2024-05-18 16:11:00,SystemResetWarning,0829.8,5.00,000.00,024.6,022.1,000.0,033.1,025.5,026.2,0000.0,0005.31,0024.83,0003.46
2024-05-18 16:12:00,SystemResetWarning,0829.8,5.01,000.00,024.2,021.2,000.0,033.1,025.0,025.7,0000.0,0005.25,0024.26,0003.45
2024-05-18 16:13:00,SystemResetWarning,0829.8,5.02,000.00,024.1,021.6,000.0,033.0,025.1,025.0,0000.0,0005.14,0022.37,0003.44
2024-05-18 16:14:00,SystemResetWarning,0829.9,4.98,000.00,024.1,022.0,000.0,032.8,025.3,025.5,0000.0,0005.16,0021.34,0003.43
2024-05-18 16:15:00,SystemResetWarning,0829.8,5.00,000.00,024.1,022.4,000.0,032.7,025.5,025.8,0000.0,0005.24,0020.76,0003.42
2024-05-18 16:16:00,SystemResetWarning,0829.8,5.02,000.00,024.1,022.7,000.0,032.7,025.7,025.6,0000.0,0005.29,0021.79,0003.41
2024-05-18 16:17:00,SystemResetWarning,0829.8,5.00,000.00,024.2,022.9,000.0,032.6,025.9,025.4,0000.0,0005.30,0021.14,0003.42
2024-05-18 16:18:00,SystemResetWarning,0829.8,4.99,000.00,024.2,023.2,000.0,032.6,026.0,025.8,0000.0,0005.25,0019.96,0003.42
2024-05-18 16:19:00,SystemResetWarning,0829.8,5.00,000.00,024.3,023.4,000.0,032.6,026.1,025.5,0000.0,0005.21,0019.92,0003.41
2024-05-18 16:20:00,SystemResetWarning,0829.8,5.00,000.00,024.3,023.5,000.0,032.6,026.1,025.0,0000.0,0005.23,0020.06,0003.42
2024-05-18 16:21:00,SystemResetWarning,0829.8,5.00,000.00,024.4,023.7,000.0,032.6,026.2,025.4,0000.0,0005.25,0020.23,0003.44
2024-05-18 16:22:00,SystemResetWarning,0829.8,5.00,000.00,024.5,023.8,000.0,032.6,026.3,025.3,0000.0,0005.22,0020.31,0003.44
2024-05-18 16:23:00,SystemResetWarning,0829.8,5.01,000.00,024.5,023.9,000.0,032.7,026.4,025.0,0000.0,0005.24,0021.18,0003.45
2024-05-18 16:24:00,SystemResetWarning,0829.8,5.00,000.00,024.6,024.0,000.0,032.7,026.5,025.0,0000.0,0005.36,0021.29,0003.47
2024-05-18 16:25:00,SystemResetWarning,0829.8,5.00,000.00,024.6,024.1,000.0,032.7,026.5,025.2,0000.0,0005.33,0021.82,0003.48
2024-05-18 16:26:00,SystemResetWarning,0829.8,5.00,000.00,024.7,024.2,000.0,032.7,026.6,026.0,0000.0,0005.25,0022.34,0003.47
2024-05-18 16:27:00,SystemResetWarning,0829.8,4.99,000.00,024.7,024.3,000.0,032.8,026.6,025.7,0000.0,0005.19,0023.26,0003.46
2024-05-18 16:28:00,SystemResetWarning,0829.8,4.99,000.00,024.8,024.3,000.0,032.8,026.7,024.8,0000.0,0005.17,0024.43,0003.45
2024-05-18 16:29:00,SystemResetWarning,0829.8,5.00,000.00,024.8,024.4,000.0,032.8,026.7,025.2,0000.0,0005.21,0024.60,0003.45
2024-05-18 16:30:00,SystemResetWarning,0829.8,4.99,000.00,024.8,023.5,000.0,032.9,026.2,024.8,0000.0,0005.28,0023.64,0003.47
2024-05-18 16:31:00,SystemResetWarning,0829.7,5.00,000.00,024.5,022.2,000.0,033.0,025.5,024.9,0000.0,0005.29,0023.50,0003.46
2024-05-18 16:32:00,SystemResetWarning,0829.7,5.01,000.00,024.4,022.3,000.0,033.0,025.6,025.2,0000.0,0005.27,0023.65,0003.44
2024-05-18 16:33:00,SystemResetWarning,0829.7,5.01,000.00,024.3,022.6,000.0,032.8,025.7,025.6,0000.0,0005.28,0023.72,0003.44
2024-05-18 16:34:00,SystemResetWarning,0829.8,5.00,000.00,024.4,022.9,000.0,032.8,025.9,025.4,0000.0,0005.31,0023.77,0003.44
2024-05-18 16:35:00,SystemResetWarning,0829.8,5.00,000.00,024.4,023.1,000.0,032.7,026.0,025.0,0000.0,0005.25,0024.24,0003.43
2024-05-18 16:36:00,SystemResetWarning,0829.8,5.01,000.00,024.4,023.4,000.0,032.7,026.2,025.2,0000.0,0005.19,0024.21,0003.42
2024-05-18 16:37:00,SystemResetWarning,0829.7,5.00,000.00,024.5,023.6,000.0,032.7,026.3,025.4,0000.0,0005.20,0023.91,0003.42
2024-05-18 16:38:00,SystemResetWarning,0829.7,5.00,000.00,024.5,023.7,000.0,032.7,026.3,025.4,0000.0,0005.29,0022.94,0003.42
2024-05-18 16:39:00,SystemResetWarning,0829.7,5.00,000.00,024.6,023.9,000.0,032.7,026.4,025.6,0000.0,0005.30,0021.82,0003.42
2024-05-18 16:40:00,SystemResetWarning,0829.7,4.99,000.00,024.6,024.0,000.0,032.8,026.5,025.7,0000.0,0005.31,0021.78,0003.41
2024-05-18 16:41:00,SystemResetWarning,0829.7,4.99,000.00,024.7,024.1,000.0,032.8,026.5,025.8,0000.0,0005.24,0022.88,0003.40
2024-05-18 16:42:00,SystemResetWarning,0829.8,5.00,000.00,024.7,024.2,000.0,032.8,026.6,026.1,0000.0,0005.18,0024.30,0003.40
2024-05-18 16:43:00,SystemResetWarning,0829.8,5.01,000.00,024.8,024.3,000.0,032.8,026.6,027.2,0000.0,0005.20,0024.82,0003.41
2024-05-18 16:44:00,SystemResetWarning,0829.8,5.00,000.00,024.8,024.0,000.0,032.9,026.5,025.8,0000.0,0005.17,0025.95,0003.41
2024-05-18 16:45:00,SystemResetWarning,0829.7,4.99,000.00,024.5,022.2,000.0,033.0,025.4,026.0,0000.0,0005.15,0026.77,0003.41
2024-05-18 16:46:00,SystemResetWarning,0829.7,5.00,000.00,024.1,021.1,000.0,032.9,024.8,026.3,0000.0,0005.11,0027.01,0003.40
2024-05-18 16:47:00,SystemResetWarning,0829.7,5.01,000.00,024.0,021.4,000.0,032.9,024.9,026.7,0000.0,0005.14,0027.13,0003.41
2024-05-18 16:48:00,SystemResetWarning,0829.7,5.00,000.00,023.9,021.8,000.0,032.7,025.1,026.6,0000.0,0005.13,0027.67,0003.40
2024-05-18 16:49:00,SystemResetWarning,0829.7,4.99,000.00,024.0,022.2,000.0,032.6,025.3,026.9,0000.0,0005.10,0028.05,0003.40
2024-05-18 16:50:00,SystemResetWarning,0829.7,4.99,000.00,024.0,022.5,000.0,032.5,025.5,027.3,0000.0,0005.09,0027.42,0003.40
2024-05-18 16:51:00,SystemResetWarning,0829.7,5.02,000.00,024.1,022.8,000.0,032.5,025.7,027.2,0000.0,0005.01,0025.85,0003.38
2024-05-18 16:52:00,SystemResetWarning,0829.7,5.00,000.00,024.1,023.1,000.0,032.5,025.8,027.2,0000.0,0004.99,0025.16,0003.36
2024-05-18 16:53:00,SystemResetWarning,0829.7,4.99,000.00,024.2,023.3,000.0,032.5,026.0,026.3,0000.0,0004.95,0023.59,0003.32
2024-05-18 16:54:00,SystemResetWarning,0829.7,4.99,000.00,024.2,023.4,000.0,032.5,026.1,027.1,0000.0,0004.91,0023.72,0003.30
2024-05-18 16:55:00,SystemResetWarning,0829.7,5.00,000.00,024.3,023.6,000.0,032.5,026.1,027.6,0000.0,0004.99,0023.72,0003.29
2024-05-18 16:56:00,SystemResetWarning,0829.7,5.00,000.00,024.4,023.7,000.0,032.5,026.2,027.7,0000.0,0004.97,0021.87,0003.28
2024-05-18 16:57:00,SystemResetWarning,0829.7,5.01,000.00,024.4,023.9,000.0,032.5,026.3,028.7,0000.0,0004.91,0021.20,0003.27
2024-05-18 16:58:00,SystemResetWarning,0829.7,5.00,000.00,024.5,024.0,000.0,032.5,026.4,026.4,0000.0,0004.86,0020.21,0003.24
2024-05-18 16:59:00,SystemResetWarning,0829.7,5.01,000.00,024.5,024.1,000.0,032.6,026.4,025.8,0000.0,0004.86,0020.12,0003.24
